Quincy, IL

9:56 AM CDT on May 27, 2017 (GMT -0500)
Quincy Regional-Baldwin

Weather History for KUIN - June, 2012

Change the Weather History Date:

Tuesday, June 19, 2012

  Actual Average Record
Temperature  
Mean Temperature 83 °F 73 °F  
Max Temperature 93 °F 83 °F 105 °F (1936)
Min Temperature 73 °F 64 °F 51 °F (1976)
Degree Days  
Heating Degree Days 0 0  
Month to date heating degree days 14  
Since 1 June heating degree days 14  
Since 1 July heating degree days 5580  
Cooling Degree Days 18 9  
Month to date cooling degree days 122  
Year to date cooling degree days 208  
Since 1 June cooling degree days 122  
Growing Degree Days 33 (Base 50)    
Moisture  
Dew Point 66 °F    
Average Humidity 57    
Maximum Humidity 76    
Minimum Humidity 42    
Precipitation  
Precipitation 0.00 in 0.13 in 1.69 in (2014)
Month to date precipitation 2.61  
Year to date precipitation 16.70  
Sea Level Pressure  
Sea Level Pressure 29.88 in    
Wind  
Wind Speed 14 mph (South)    
Max Wind Speed 22 mph    
Max Gust Speed 31 mph    
Visibility 10 miles    
Events      
T = Trace of Precipitation, MM = Missing Value Source: NWS Daily Summary

Daily Weather History Graph

Daily Weather History Graph

Search for Another Location

Airport or City:

Trip Planner

Search our weather history database for the weather conditions in past years. The results will help you decide how hot, cold, wet, or windy it might be!

Date:

Astronomy

Jun. 19, 2012 Rise Set
Actual Time 5:35 AM CDT 8:36 PM CDT
Civil Twilight 5:03 AM CDT 9:09 PM CDT
Nautical Twilight 4:21 AM CDT 9:51 PM CDT
Astronomical Twilight 3:32 AM CDT 10:39 PM CDT
Moon 5:40 AM CDT (6/19) 8:41 PM CDT (6/19)
Length of Visible Light 16h 06m
Length of Day
15h 00m
New Moon, 0% of the Moon is Illuminated
Jun 19
New Moon
Jun 26
First Quarter
Jul 3
Full
Jul 10
Last Quarter
Jul 18
New

Hourly Weather History & Observations

Time (CDT) Temp. Heat Index Dew Point Humidity Pressure Visibility Wind Dir Wind Speed Gust Speed Precip Events Conditions
12:54 AM 80.1 °F 81.5 °F 63.0 °F 56% 29.81 in 10.0 mi South 13.8 mph - N/A   Clear
1:54 AM 78.1 °F - 63.0 °F 60% 29.81 in 10.0 mi South 13.8 mph - N/A   Clear
2:54 AM 77.0 °F - 64.0 °F 64% 29.81 in 10.0 mi South 13.8 mph 20.7 mph N/A   Clear
3:54 AM 75.9 °F - 64.0 °F 67% 29.82 in 10.0 mi South 12.7 mph - N/A   Clear
4:54 AM 75.0 °F - 64.9 °F 71% 29.84 in 10.0 mi South 12.7 mph - N/A   Clear
5:54 AM 73.9 °F - 66.0 °F 76% 29.86 in 10.0 mi South 9.2 mph - N/A   Clear
6:54 AM 75.2 °F - 66.2 °F 73% 29.90 in 10.0 mi South 9.2 mph - N/A   Clear
7:54 AM 78.1 °F - 68.0 °F 71% 29.89 in 10.0 mi SSW 16.1 mph 20.7 mph N/A   Clear
8:54 AM 82.0 °F 84.9 °F 68.0 °F 62% 29.90 in 10.0 mi SSW 13.8 mph - N/A   Clear
9:54 AM 84.9 °F 88.8 °F 69.1 °F 59% 29.91 in 10.0 mi SSW 13.8 mph - N/A   Clear
10:54 AM 87.1 °F 90.6 °F 68.0 °F 53% 29.91 in 10.0 mi South 11.5 mph 20.7 mph N/A   Clear
11:54 AM 88.0 °F 91.4 °F 68.0 °F 51% 29.91 in 10.0 mi SSW 17.3 mph 24.2 mph N/A   Partly Cloudy
12:54 PM 88.0 °F 90.7 °F 66.9 °F 49% 29.91 in 10.0 mi South 11.5 mph 24.2 mph N/A   Scattered Clouds
1:54 PM 90.0 °F 92.8 °F 66.9 °F 46% 29.89 in 10.0 mi South 12.7 mph 24.2 mph N/A   Mostly Cloudy
2:54 PM 93.0 °F 96.4 °F 66.9 °F 42% 29.88 in 10.0 mi South 15.0 mph 28.8 mph N/A   Mostly Cloudy
3:54 PM 90.0 °F 92.4 °F 66.0 °F 45% 29.88 in 10.0 mi South 15.0 mph 26.5 mph N/A   Mostly Cloudy
4:54 PM 90.0 °F 92.8 °F 66.9 °F 46% 29.87 in 10.0 mi South 18.4 mph 26.5 mph N/A   Scattered Clouds
5:54 PM 89.1 °F 92.1 °F 66.9 °F 48% 29.87 in 10.0 mi South 17.3 mph 23.0 mph N/A   Clear
6:54 PM 88.0 °F 89.6 °F 64.9 °F 46% 29.87 in 10.0 mi South 21.9 mph 31.1 mph N/A   Clear
7:54 PM 86.0 °F 87.6 °F 64.9 °F 49% 29.87 in 10.0 mi South 15.0 mph - N/A   Clear
8:54 PM 84.0 °F 86.3 °F 66.0 °F 55% 29.88 in 10.0 mi South 11.5 mph 18.4 mph N/A   Clear
9:54 PM 82.0 °F 84.1 °F 66.0 °F 58% 29.90 in 10.0 mi South 10.4 mph - N/A   Clear
10:54 PM 81.0 °F 83.0 °F 66.0 °F 60% 29.91 in 10.0 mi South 10.4 mph - N/A   Clear
11:54 PM 80.1 °F 82.1 °F 66.0 °F 62% 29.92 in 10.0 mi South 13.8 mph 19.6 mph N/A   Clear